Zurück zum Katalog

STARLINK-35330

AktivKommunikationSSO
NORAD 65791·PAYLOAD·🇺🇸 United States

Gestartet Sep 26, 2025 von Vandenberg Space Force Base

Loading…

Nächste Überflüge (nächste 24 Stunden)

TLE

AktuellSource: CelesTrak SupGP

Epoche: Sep 14, 2026, 15:23 UTC

1 65791C 25218A   26257.64145833 -.00018700  00000+0 -58053-3 0  2570
2 65791  97.2846 115.0451 0001766  84.6958 234.3816 15.33446334    17

Verfolge STARLINK-35330 in Echtzeit mit AllMySat

Download on the App Store